Regional Weather Roundup
Issued by NWS

Home | Current Version | Previous Version | Text Only | Print | Product List | Glossary Off
Versions: 1 2 3 4 5 6 7 8 9 10 11 12 13 14 15 16 17 18 19 20 21 22 23 24 25 26 27 28 29 30 31 32 33 34 35 36 37 38 39 40 41 42 43 44 45 46 47 48 49 50

000
ASUS45 KSLC 240610
RWRUT

UTAH REGIONAL WEATHER ROUNDUP
NATIONAL WEATHER SERVICE SALT LAKE CITY UT
1200 AM MDT SAT JUN 24 2017

UTZ001>011-023>025-240700-

NORTHERN UTAH

CITY           SKY/WX    TMP DP  RH WIND       PRES   REMARKS
BRIGHAM CITY   CLEAR     68  32  26 CALM      30.17R
HILL AFB       CLEAR     65  36  33 SE12      30.18S
LOGAN          CLEAR     62  41  46 S6        30.19R
OGDEN          CLEAR     64  39  39 CALM      30.16S
SALT LAKE CITY CLEAR     70  38  31 S6        30.14S
TOOELE VALLEY  CLEAR     59  32  36 S7        30.15F
WENDOVER         N/A     76  29  17 N8        30.16S
HEBER CITY     CLEAR     50  37  62 SE3       30.24S
WEST JORDAN    CLEAR     65  40  39 W3        30.17F

$$

UTZ011>015-024>027-240700-

CENTRAL/NORTHEAST UTAH

CITY           SKY/WX    TMP DP  RH WIND       PRES   REMARKS
PROVO AIRPORT  CLEAR     61  46  57 S7        30.17S
MOAB/CANYONLAN CLEAR     77  19  11 NW14      30.04R
DELTA          CLEAR     70  21  16 N9        30.16S
PRICE          CLEAR     67  22  18 N6        30.20R
RICHFIELD      CLEAR     63  32  31 CALM      30.22R
ROOSEVELT      CLEAR     64  27  24 W6        30.17R
VERNAL         CLEAR     70  27  20 NE5       30.15R

$$

UTZ013>016-019>022-027-240700-

SOUTHERN UTAH

CITY           SKY/WX    TMP DP  RH WIND       PRES   REMARKS
BRYCE CANYON   CLEAR     49  24  37 W9        30.34S
CEDAR CITY     CLEAR     64  26  23 N5        30.17R
MILFORD        CLEAR     67  18  15 N8        30.15R
ST GEORGE      CLEAR     95  23   7 NE18G24   29.88R
HANKSVILLE     CLEAR     73  18  12 NW3       30.09R
KANAB          CLEAR     79  23  12 NW13      30.13R
BLANDING       CLEAR     68  26  21 N12       30.22R

$$

REGIONAL REPORTS     COLORADO/ARIZONA

CITY           SKY/WX    TMP DP  RH WIND       PRES   REMARKS
CRAIG, CO      CLEAR     47  39  74 CALM      30.24R
GRAND JUNCTION CLEAR     77  18  11 S6        30.07R
RIFLE, CO      CLEAR     62  29  28 E5        30.17R
MONTROSE, CO   CLEAR     67  26  21 SE13      30.16S
CORTEZ, CO     CLEAR     59  29  31 E6        30.16R
COLORADO CITY    N/A     70  34  26 CALM      30.10R
PAGE, AZ       CLEAR     88  18   7 NW5       30.00S
GRAND CANYON   CLEAR     58  28  32 CALM      30.24R
KINGMAN, AZ    CLEAR     89  38  16 S14       29.95S
FLAGSTAFF, AZ  PTCLDY    64  30  27 CALM      30.26S

$$

REGIONAL REPORTS    NEVADA/IDAHO/WYOMING

CITY           SKY/WX    TMP DP  RH WIND       PRES   REMARKS
LAS VEGAS, NV  PTCLDY   100  21   6 SE6       29.79R HX  93
ELY, NY        CLEAR     63  18  17 N7        30.27R
ELKO, NV       CLEAR     66  31  27 CALM      30.22R
POCATELLO, ID  CLEAR     54  39  57 S6        30.21R
BURLEY, ID     CLEAR     54  43  66 SW7       30.17F
FORT BRIDGER,    N/A     57  28  32 W7        30.37S
EVANSTON, WY   CLEAR     55  33  43 N8        30.34S
ROCK SPRINGS,  CLEAR     54  29  38 NE13      30.32S
KEMMERER, WY     N/A     50  30  46 N12       30.35S

$$



USA.gov is the U.S. government's official web portal to all federal, state and local government web resources and services.